Tiempo atmosférico en la estación meteorológica de Noia, A Coruña (128 m.)



Fecha
DESCASC
Temp. máxima en grados centígrados (hora)
DESCASC
Temp. mínima en grados centígrados (hora)
DESCASC
Temp. media en grados centígrados
DESCASC
Racha de viento máxima en m/sg (hora)
DESCASC
Velocidad máxima media en intervalos de 10 minutos(hora)
DESCASC
Precipitaciones diarias en mm
DESCASC
Precipitaciones de 00:00 a 06:00 en mm
DESCASC
Precipitaciones de 06:00 a 12:00 en mm
DESCASC
Precipitaciones de 12:00 a 18:00 en mm
DESCASC
Precipitaciones de 18:00 a 24:00 en mm
DESCASC
28-02-2021 17.9 (15:40) 6.6 (08:20) 12.2 4.72 (13:40) 1.67 (15:40) 0 0 0 0 0
27-02-2021 19.2 (15:50) 8.6 (06:40) 13.9 6.11 (13:50) 2.5 (13:50) 0 0 0 0 0
26-02-2021 18.7 (15:20) 8.6 (08:20) 13.7 5.28 (02:50) 1.67 (03:10) 0 0 0 0 0
25-02-2021 11.9 (15:20) 8.2 (00:00) 10 4.44 (15:10) 1.67 (00:40) 3 2 0.2 0.8 0
24-02-2021 16.9 (13:50) 9.2 (00:00) 13 15.28 (14:30) 6.39 (15:00) 6.6 0.2 0 0 6.4
23-02-2021 13.3 (20:00) 10.5 (00:00) 11.9 17.78 (14:20) 7.22 (16:00) 4.4 0 1.8 2 0.6
22-02-2021 13.6 (14:30) 3.9 (00:00) 8.8 9.72 (13:20) 3.89 (15:20) 0 0 0 0 0
21-02-2021 11.9 (14:40) 5.4 (00:00) 8.6 5.83 (16:50) 1.39 (01:20) 4.2 3.4 0.4 0.4 0
20-02-2021 14.4 (05:20) 8.7 (00:00) 11.5 19.44 (03:20) 8.33 (01:30) 87 20 59.4 3.2 4.4
19-02-2021 13.9 (20:00) 10 (00:00) 11.9 19.72 (21:40) 7.78 (20:00) 23.2 0.2 5.8 3.8 13.4
18-02-2021 14 (14:40) 8.8 (00:00) 11.4 15.83 (03:20) 3.89 (02:20) 13.4 10.8 2.6 0 0
17-02-2021 15 (15:10) 9 (00:00) 12 15 (17:50) 5 (17:50) 11.8 0 0 3 8.8
16-02-2021 14.6 (13:20) 10.2 (00:00) 12.4 17.22 (05:00) 6.39 (05:00) 16.2 3.6 12.6 0 0
15-02-2021 19.3 (13:40) 13 (00:00) 16.1 14.17 (15:30) 5.28 (15:30) 0 0 0 0 0
14-02-2021 16.3 (12:00) 11.6 (00:00) 13.9 12.5 (16:10) 4.17 (16:10) 0 0 0 0 0
13-02-2021 14 (15:00) 11.5 (00:00) 12.8 10.28 (20:50) 4.72 (21:20) 0.4 0 0.4 0 0
12-02-2021 13.9 (13:10) 10.4 (00:00) 12.1 7.5 (01:10) 2.5 (23:10) 6.4 5.4 1 0 0
11-02-2021 13.7 (14:50) 9.9 (00:00) 11.8 10.28 (02:50) 3.89 (00:10) 49.4 2.8 17.8 16.4 12.4
10-02-2021 13 (13:00) 5.2 (00:00) 9.1 7.22 (00:10) 3.33 (23:50) 3.8 1.2 0 0 2.6
09-02-2021 11.6 (06:10) 7.4 (00:00) 9.5 14.72 (04:40) 4.17 (04:30) 25.4 7.4 4.2 10.2 3.6
08-02-2021 10.9 (14:00) 7.7 (00:00) 9.3 9.72 (23:00) 3.61 (23:00) 29.6 2.8 16.8 6.2 3.8
07-02-2021 12.3 (20:20) 2.6 (00:00) 7.5 12.22 (19:00) 5 (16:30) 17.2 0 0.6 4.4 12.2
06-02-2021 11.2 (13:30) 4 (00:00) 7.6 9.72 (03:30) 2.78 (15:00) 0 0 0 0 0
05-02-2021 12.6 (13:20) 6.2 (00:00) 9.4 8.33 (22:40) 2.22 (17:00) 0.2 0.2 0 0 0
04-02-2021 14.8 (14:30) 8.5 (00:00) 11.7 8.61 (00:10) 2.5 (14:20) 4 1.4 0 0.2 2.4
03-02-2021 13.7 (13:00) 10.1 (00:00) 11.9 13.06 (00:20) 3.33 (19:20) 4.8 2.4 0 0.6 1.8
02-02-2021 13.7 (02:00) 12.9 (00:00) 13.3 13.61 (16:00) 4.72 (16:20) 38.2 0 17 15.4 5.8
01-02-2021 13.8 (21:40) 12.2 (00:00) 13 9.72 (21:40) 3.33 (23:00) 6.6 0 1.4 5 0.2

Gráficas

Temp. máximas Temp. mínimas Temp. medias Precipitaciones Rachas de viento máximas Velocidades máximas media en intervalos de 10 minutos

Datos horarios

Fecha y hora oficial Temperatura (ºC) Velocidad del viento (km/h) Dirección del viento Racha (km/h) Dirección de racha Precipitación (mm) Presión (hPa) Tendencia (hPa) Humedad (%)
2021-03-02 23:00:00 8 2 Este 3 Nordeste 0 -- -- 93
2021-03-02 22:00:00 8.8 0 Calma 5 Sudeste 0 -- -- 91
2021-03-02 21:00:00 9.6 2 Sudeste 4 Sudeste 0 -- -- 90
2021-03-02 20:00:00 10.6 2 Este 4 Noroeste 0 -- -- 86
2021-03-02 19:00:00 12.3 0 Calma 10 Oeste 0 -- -- 82
2021-03-02 18:00:00 13.3 2 Noroeste 18 Noroeste 0 -- -- 81
2021-03-02 17:00:00 14.2 3 Noroeste 19 Noroeste 0 -- -- 76
2021-03-02 16:00:00 13.5 3 Noroeste 19 Oeste 0 -- -- 81
2021-03-02 15:00:00 13.6 3 Noroeste 13 Oeste 0 -- -- 79
2021-03-02 14:00:00 13.1 2 Oeste 11 Sudoeste 0 -- -- 83
2021-03-02 13:00:00 12 4 Sudoeste 15 Sudoeste 0 -- -- 85
2021-03-02 12:00:00 12.2 2 Sudoeste 11 Sudoeste 0 -- -- 82
2021-03-02 11:00:00 12 3 Sudoeste 12 Sur 0 -- -- 87
2021-03-02 10:00:00 11.2 3 Sur 11 Sudeste 0 -- -- 87
2021-03-02 09:00:00 10.6 4 Sur 10 Sur 0 -- -- 87
2021-03-02 08:00:00 11 4 Sur 12 Sudoeste 0 -- -- 83
2021-03-02 07:00:00 11.2 3 Sur 14 Sudoeste 0 -- -- 85
2021-03-02 06:00:00 11.3 3 Noroeste 23 Sudoeste 0 -- -- 86
2021-03-02 05:00:00 11.1 2 Sudoeste 13 Sudoeste 0 -- -- 83
2021-03-02 04:00:00 11 3 Sur 12 Sur 0 -- -- 82
2021-03-02 03:00:00 10.8 4 Sur 17 Sudoeste 0 -- -- 83
2021-03-02 02:00:00 10.8 5 Sudoeste 19 Sudoeste 0 -- -- 82
2021-03-02 01:00:00 11.1 4 Sudoeste 19 Sur 0 -- -- 83
2021-03-02 00:00:00 11 4 Sudoeste 14 Sur 0 -- -- 90
2021-03-01 23:00:00 10.9 4 Sur 15 Sur 0 -- -- 92
2021-03-01 22:00:00 10.9 5 Sur 12 Sur 0 -- -- 89
2021-03-01 21:00:00 11.5 4 Sudoeste 14 Sur 0 -- -- 85
2021-03-01 20:00:00 11.7 5 Sudoeste 20 Sur 0 -- -- 80
2021-03-01 19:00:00 12 3 Sudoeste 22 Sur 0 -- -- 83
2021-03-01 18:00:00 12.3 6 Sur 19 Sudoeste 0 -- -- 86
2021-03-01 17:00:00 12.5 4 Sur 15 Sur 0 -- -- 87
2021-03-01 16:00:00 12 4 Sur 15 Sudoeste 0.2 -- -- 89
2021-03-01 15:00:00 11.5 4 Sudoeste 14 Sudoeste 0.6 -- -- 93
2021-03-01 14:00:00 11.6 3 Sur 13 Sudoeste 0.2 -- -- 93
2021-03-01 13:00:00 11.4 2 Sudoeste 11 Sur 0 -- -- 95
2021-03-01 12:00:00 10.6 3 Sur 9 Sur 1 -- -- 98
2021-03-01 11:00:00 9.3 4 Sudeste 11 Sudeste 0.2 -- -- 95
2021-03-01 10:00:00 8 2 Este 8 Sur 0 -- -- 93
2021-03-01 09:00:00 7.9 0 Calma 9 Nordeste 0 -- -- 91
2021-03-01 08:00:00 7.5 3 Nordeste 5 Nordeste 0 -- -- 93
2021-03-01 07:00:00 6.5 3 Sudeste 8 Sudeste 0 -- -- 95
2021-03-01 06:00:00 5.8 0 Calma 3 Este 0 -- -- 95
2021-03-01 05:00:00 5.3 0 Calma 5 Sudeste 0 -- -- 92
2021-03-01 04:00:00 6.3 4 Este 11 Este 0 -- -- 88
2021-03-01 03:00:00 6.1 2 Este 9 Nordeste 0 -- -- 90
2021-03-01 02:00:00 6.7 3 Nordeste 9 Nordeste 0 -- -- 86
2021-03-01 01:00:00 7.2 3 Este 10 Este 0 -- -- 84
2021-03-01 00:00:00 7.9 4 Nordeste 9 Nordeste 0 -- -- 81
2021-02-28 23:00:00 8.8 4 Nordeste 9 Este 0 -- -- 77
2021-02-28 22:00:00 9.9 3 Nordeste 10 Nordeste 0 -- -- 75
2021-02-28 21:00:00 11.2 4 Nordeste 10 Nordeste 0 -- -- 71
2021-02-28 20:00:00 11.9 3 Nordeste 9 Norte 0 -- -- 72
2021-02-28 19:00:00 13.7 0 Calma 4 Oeste 0 -- -- 70
2021-02-28 18:00:00 15.5 2 Noroeste 8 Noroeste 0 -- -- 67
2021-02-28 17:00:00 17.6 2 Noroeste 14 Norte 0 -- -- 57
2021-02-28 16:00:00 17.8 2 Norte 14 Este 0 -- -- 51
2021-02-28 15:00:00 17.6 5 Nordeste 16 Noroeste 0 -- -- 48
2021-02-28 14:00:00 16.9 5 Nordeste 17 Norte 0 -- -- 51
2021-02-28 13:00:00 15.8 3 Nordeste 12 Nordeste 0 -- -- 57
2021-02-28 12:00:00 13.8 6 Nordeste 14 Nordeste 0 -- -- 60
2021-02-28 11:00:00 11.5 4 Nordeste 12 Norte 0 -- -- 68
2021-02-28 10:00:00 8.2 3 Nordeste 12 Nordeste 0 -- -- 81
2021-02-28 09:00:00 6.8 4 Nordeste 11 Nordeste 0 -- -- 84
2021-02-28 08:00:00 6.7 4 Nordeste 10 Nordeste 0 -- -- 85
2021-02-28 07:00:00 6.9 4 Nordeste 10 Este 0 -- -- 84
2021-02-28 06:00:00 7.3 4 Nordeste 10 Nordeste 0 -- -- 84
2021-02-28 05:00:00 7.4 3 Nordeste 10 Nordeste 0 -- -- 85
2021-02-28 04:00:00 7.5 2 Este 6 Este 0 -- -- 87
2021-02-28 03:00:00 7.9 3 Nordeste 9 Nordeste 0 -- -- 87
2021-02-28 02:00:00 8.3 2 Norte 6 Nordeste 0 -- -- 86
2021-02-28 01:00:00 8.8 2 Norte 7 Nordeste 0 -- -- 85
2021-02-28 00:00:00 9.5 0 Calma 10 Norte 0 -- -- 84
2021-02-27 23:00:00 10.6 3 Nordeste 13 Nordeste 0 -- -- 80
2021-02-27 22:00:00 11.8 0 Calma 13 Nordeste 0 -- -- 77
2021-02-27 21:00:00 13.1 4 Nordeste 13 Norte 0 -- -- 73
2021-02-27 20:00:00 14.7 3 Este 13 Este 0 -- -- 69
2021-02-27 19:00:00 16.3 4 Este 16 Sudeste 0 -- -- 66
2021-02-27 18:00:00 17.9 4 Este 21 Este 0 -- -- 63
2021-02-27 17:00:00 18.5 4 Este 17 Este 0 -- -- 63
2021-02-27 16:00:00 19 6 Este 19 Sudeste 0 -- -- 57
2021-02-27 15:00:00 18.7 7 Este 21 Sudeste 0 -- -- 57
2021-02-27 14:00:00 17.9 7 Este 22 Este 0 -- -- 62
2021-02-27 13:00:00 16.4 4 Nordeste 18 Sudeste 0 -- -- 68
2021-02-27 12:00:00 14.5 2 Nordeste 16 Nordeste 0 -- -- 73
2021-02-27 11:00:00 12.4 5 Nordeste 17 Este 0 -- -- 79
2021-02-27 10:00:00 10 0 Calma 9 Norte 0 -- -- 90
2021-02-27 09:00:00 9.2 2 Este 8 Nordeste 0 -- -- 90
2021-02-27 08:00:00 8.8 2 Nordeste 8 Nordeste 0 -- -- 91
2021-02-27 07:00:00 8.7 3 Nordeste 6 Nordeste 0 -- -- 93
2021-02-27 06:00:00 9.2 2 Nordeste 8 Nordeste 0 -- -- 90
2021-02-27 05:00:00 9.5 3 Nordeste 10 Nordeste 0 -- -- 90
2021-02-27 04:00:00 9.3 2 Nordeste 8 Nordeste 0 -- -- 90
2021-02-27 03:00:00 9.6 2 Nordeste 8 Nordeste 0 -- -- 89
2021-02-27 02:00:00 9.6 3 Nordeste 6 Norte 0 -- -- 90
2021-02-27 01:00:00 9.9 0 Calma 6 Norte 0 -- -- 89
2021-02-27 00:00:00 10.8 0 Calma 11 Norte 0 -- -- 85
2021-02-26 23:00:00 11.7 2 Nordeste 9 Este 0 -- -- 82
2021-02-26 22:00:00 12.5 2 Nordeste 13 Sudeste 0 -- -- 82
2021-02-26 21:00:00 14.2 5 Este 18 Sudeste 0 -- -- 75
2021-02-26 20:00:00 15.2 5 Este 17 Este 0 -- -- 74
2021-02-26 19:00:00 16.2 3 Nordeste 15 Este 0 -- -- 73
2021-02-26 18:00:00 17.5 5 Este 17 Este 0 -- -- 69
2021-02-26 17:00:00 18.4 4 Nordeste 10 Oeste 0 -- -- 67
2021-02-26 16:00:00 18.6 2 Norte 13 Nordeste 0 -- -- 64
2021-02-26 15:00:00 18.6 3 Nordeste 14 Este 0 -- -- 64
2021-02-26 14:00:00 18.1 3 Sudeste 16 Sudeste 0 -- -- 64
2021-02-26 13:00:00 15.5 3 Este 14 Sudeste 0 -- -- 75
2021-02-26 12:00:00 14.2 4 Este 17 Sudeste 0 -- -- 76
2021-02-26 11:00:00 13.2 5 Sur 17 Sudeste 0 -- -- 78
2021-02-26 10:00:00 10.6 3 Noroeste 18 Sudeste 0 -- -- 89
2021-02-26 09:00:00 8.9 2 Nordeste 10 Nordeste 0 -- -- 95
2021-02-26 08:00:00 8.8 0 Calma 8 Noroeste 0 -- -- 93
2021-02-26 07:00:00 9.4 2 Oeste 10 Sudeste 0 -- -- 92
2021-02-26 06:00:00 10.1 2 Norte 17 Nordeste 0 -- -- 89
2021-02-26 05:00:00 10.1 5 Nordeste 15 Norte 0 -- -- 88
2021-02-26 04:00:00 10.3 4 Este 15 Este 0 -- -- 87
2021-02-26 03:00:00 10.3 5 Nordeste 19 Noroeste 0 -- -- 87
2021-02-26 02:00:00 9.9 2 Nordeste 15 Norte 0 -- -- 91
2021-02-26 01:00:00 10.1 2 Noroeste 17 Norte 0 -- -- 91
2021-02-26 00:00:00 9.8 2 Noroeste 16 Nordeste 0 -- -- 92
2021-02-25 23:00:00 9.5 0 Calma 7 Oeste 0 -- -- 96
2021-02-25 22:00:00 9.4 0 Calma 9 Este 0 -- -- 96
2021-02-25 21:00:00 9.7 2 Noroeste 12 Sudoeste 0 -- -- 95
2021-02-25 20:00:00 9.9 3 Norte 14 Nordeste 0 -- -- 94
2021-02-25 19:00:00 10.2 2 Noroeste 12 Nordeste 0 -- -- 96
2021-02-25 18:00:00 10.4 2 Norte 8 Norte 0.4 -- -- 97
2021-02-25 17:00:00 10.4 0 Calma 16 Norte 0.4 -- -- 94
2021-02-25 16:00:00 11.4 2 Norte 16 Nordeste 0 -- -- 87
2021-02-25 15:00:00 11.8 2 Norte 9 Oeste 0 -- -- 88
2021-02-25 14:00:00 10.9 0 Calma 7 Norte 0 -- -- 93
2021-02-25 13:00:00 10.7 4 Nordeste 10 Este 0 -- -- 89
2021-02-25 12:00:00 10.2 3 Norte 12 Nordeste 0 -- -- 97
2021-02-25 11:00:00 9.6 0 Calma 6 Norte 0 -- -- 100
2021-02-25 10:00:00 8.8 0 Calma 4 Nordeste 0 -- -- 100
2021-02-25 09:00:00 8.4 0 Calma 5 Este 0 -- -- 100
2021-02-25 08:00:00 8.3 0 Calma 4 Norte 0.2 -- -- 100
2021-02-25 07:00:00 8.2 0 Calma 8 Norte 0 -- -- 100
2021-02-25 06:00:00 8.5 0 Calma 8 Nordeste 0 -- -- 100
2021-02-25 05:00:00 8.5 0 Calma 7 Nordeste 0 -- -- 100
2021-02-25 04:00:00 8.5 2 Este 5 Este 0.2 -- -- 99
2021-02-25 03:00:00 8.7 2 Nordeste 3 Sudeste 0 -- -- 99
2021-02-25 02:00:00 8.8 0 Calma 4 Este 0.8 -- -- 98
2021-02-25 01:00:00 9.1 0 Calma 12 Este 1 -- -- 97
2021-02-25 00:00:00 9.2 0 Calma 4 Sur 1.2 -- -- 98
2021-02-24 23:00:00 9.3 0 Calma 3 Norte 1.8 -- -- 98
2021-02-24 22:00:00 9.4 0 Calma 15 Oeste 2 -- -- 97
2021-02-24 21:00:00 10 2 Noroeste 22 Oeste 1.4 -- -- 95
2021-02-24 20:00:00 12.6 3 Sudoeste 27 Sur 0 -- -- 84
2021-02-24 19:00:00 13.8 5 Sur 19 Oeste 0 -- -- 72
2021-02-24 18:00:00 14.2 8 Sudoeste 32 Sudoeste 0 -- -- 68
2021-02-24 17:00:00 14.8 9 Sudoeste 46 Sudoeste 0 -- -- 65
2021-02-24 16:00:00 14.9 15 Sudoeste 50 Sur 0 -- -- 63
2021-02-24 15:00:00 15.3 23 Sur 55 Sur 0 -- -- 62
2021-02-24 14:00:00 16.7 17 Sur 52 Sudoeste 0 -- -- 56
2021-02-24 13:00:00 16.2 11 Sudoeste 48 Sur 0 -- -- 56
2021-02-24 12:00:00 16.3 15 Sur 50 Sur 0 -- -- 56
2021-02-24 11:00:00 14.4 18 Sur 44 Sur 0 -- -- 61
2021-02-24 10:00:00 13.4 11 Sur 33 Sur 0 -- -- 64
2021-02-24 09:00:00 13.1 9 Sur 31 Sur 0 -- -- 62
2021-02-24 08:00:00 13.1 12 Sur 30 Sur 0 -- -- 61
2021-02-24 07:00:00 13.2 11 Sur 29 Sur 0 -- -- 58
2021-02-24 06:00:00 13.3 11 Sur 32 Sur 0 -- -- 66
2021-02-24 05:00:00 13.5 13 Sudoeste 39 Sur 0 -- -- 69
2021-02-24 04:00:00 13.5 14 Sur 35 Sur 0 -- -- 71
2021-02-24 03:00:00 13.1 11 Sur 27 Sur 0 -- -- 78
2021-02-24 02:00:00 13.1 12 Sur 35 Sudeste 0.2 -- -- 82
2021-02-24 01:00:00 13.4 12 Sur 33 Sur 0 -- -- 88
2021-02-24 00:00:00 13.3 10 Sur 29 Sur 0 -- -- 94
2021-02-23 23:00:00 12.8 9 Sur 24 Sur 0 -- -- 97
2021-02-23 22:00:00 12.8 8 Sur 29 Sur 0.4 -- -- 96
2021-02-23 21:00:00 13.1 13 Sur 41 Sudoeste 0 -- -- 92
2021-02-23 20:00:00 13.3 13 Sur 33 Sur 0 -- -- 89
2021-02-23 19:00:00 12.6 9 Sur 48 Sur 0.2 -- -- 91
2021-02-23 18:00:00 13.2 19 Sur 49 Sur 0 -- -- 88
2021-02-23 17:00:00 12.6 21 Sur 49 Sudoeste 0.4 -- -- 93
2021-02-23 16:00:00 12.2 26 Sur 57 Sudoeste 0.4 -- -- 91
2021-02-23 15:00:00 12 18 Sur 64 Sur 0.8 -- -- 95
2021-02-23 14:00:00 12.6 19 Sur 54 Sur 0.2 -- -- 89
2021-02-23 13:00:00 12.5 21 Sur 45 Sur 0.2 -- -- 92
2021-02-23 12:00:00 12.3 18 Sur 49 Sudeste 0.4 -- -- 94
2021-02-23 11:00:00 11.7 21 Sur 44 Sur 0.4 -- -- 96
2021-02-23 10:00:00 11.3 17 Sur 49 Sur 0.4 -- -- 98
2021-02-23 09:00:00 10.7 18 Sur 40 Sur 0.4 -- -- 98
2021-02-23 08:00:00 10.8 18 Sur 37 Sur 0.2 -- -- 96
2021-02-23 07:00:00 11.6 12 Sur 30 Sur 0 -- -- 86
2021-02-23 06:00:00 11.6 3 Sur 27 Este 0 -- -- 84
2021-02-23 05:00:00 11.7 3 Sudoeste 20 Sudeste 0 -- -- 82
2021-02-23 04:00:00 12.3 6 Sur 26 Sudeste 0 -- -- 74
2021-02-23 03:00:00 12 10 Sur 29 Sur 0 -- -- 74
2021-02-23 02:00:00 11.2 5 Sur 18 Sur 0 -- -- 77
2021-02-23 01:00:00 10.6 4 Sur 14 Sur 0 -- -- 79
2021-02-23 00:00:00 10.7 5 Sudeste 15 Sur 0 -- -- 78
2021-02-22 23:00:00 10.7 5 Sur 24 Sur 0 -- -- 78
2021-02-22 22:00:00 10.8 4 Sudeste 13 Sur 0 -- -- 78
2021-02-22 21:00:00 10.8 6 Sur 17 Sur 0 -- -- 79
2021-02-22 20:00:00 10.9 4 Sur 18 Sur 0 -- -- 83
2021-02-22 19:00:00 11.6 6 Sur 28 Sudoeste 0 -- -- 81
2021-02-22 18:00:00 12.5 7 Sudoeste 27 Sur 0 -- -- 75
2021-02-22 17:00:00 13.1 6 Sudoeste 33 Sur 0 -- -- 70
2021-02-22 16:00:00 13.5 13 Sur 35 Sur 0 -- -- 64
2021-02-22 15:00:00 13.4 10 Sur 32 Sur 0 -- -- 63
2021-02-22 14:00:00 13.3 10 Sudoeste 35 Sur 0 -- -- 62
2021-02-22 13:00:00 13.2 5 Sudoeste 24 Sur 0 -- -- 67
2021-02-22 12:00:00 11.6 7 Sur 23 Sur 0 -- -- 73
2021-02-22 11:00:00 9.3 3 Sur 13 Sur 0 -- -- 84
2021-02-22 10:00:00 6.4 4 Sudeste 10 Sudeste 0 -- -- 97
2021-02-22 09:00:00 4.6 3 Sudeste 6 Sudeste 0 -- -- 100
2021-02-22 08:00:00 4.5 0 Calma 8 Sudeste 0 -- -- 100
2021-02-22 07:00:00 4.2 0 Calma 3 Nordeste 0 -- -- 100
2021-02-22 06:00:00 4 0 Calma 3 Nordeste 0 -- -- 100
2021-02-22 05:00:00 3.9 0 Calma 3 Nordeste 0 -- -- 100
2021-02-22 04:00:00 3.9 0 Calma 2 Este 0 -- -- 99
2021-02-22 03:00:00 4.2 0 Calma 2 Este 0 -- -- 98
2021-02-22 02:00:00 4.7 0 Calma 7 Sudeste 0 -- -- 97
2021-02-22 01:00:00 4.9 0 Calma 3 Este 0 -- -- 97
2021-02-22 00:00:00 5.4 0 Calma 3 Nordeste 0 -- -- 96
2021-02-21 23:00:00 6.1 0 Calma 5 Sudeste 0 -- -- 95
2021-02-21 22:00:00 6.6 2 Este 4 Sudeste 0 -- -- 94
2021-02-21 21:00:00 7.3 0 Calma 6 Nordeste 0 -- -- 91
2021-02-21 20:00:00 8.1 0 Calma 12 Oeste 0 -- -- 88
2021-02-21 19:00:00 10.1 2 Noroeste 15 Noroeste 0 -- -- 83
2021-02-21 18:00:00 11.2 3 Noroeste 15 Noroeste 0 -- -- 79
2021-02-21 17:00:00 11.6 3 Noroeste 21 Oeste 0 -- -- 82
2021-02-21 16:00:00 11.8 3 Noroeste 17 Noroeste 0 -- -- 85
2021-02-21 15:00:00 11.7 3 Noroeste 14 Noroeste 0 -- -- 86
2021-02-21 14:00:00 10.9 2 Noroeste 10 Noroeste 0.2 -- -- 91
2021-02-21 13:00:00 9.7 0 Calma 5 Noroeste 0.2 -- -- 93
2021-02-21 12:00:00 8.5 3 Sur 7 Sur 0 -- -- 99
2021-02-21 11:00:00 7.6 0 Calma 3 Sudoeste 0 -- -- 100
2021-02-21 10:00:00 6.9 0 Calma 6 Este 0 -- -- 100
2021-02-21 09:00:00 6.6 2 Este 10 Sudeste 0 -- -- 99
2021-02-21 08:00:00 6.6 4 Sudeste 8 Sudeste 0.2 -- -- 100
2021-02-21 07:00:00 6.9 3 Nordeste 9 Oeste 0.2 -- -- 99
2021-02-21 06:00:00 7.4 0 Calma 11 Sudeste 1.2 -- -- 99
2021-02-21 05:00:00 7.6 4 Este 8 Este 0.8 -- -- 99
2021-02-21 04:00:00 7.8 2 Este 9 Este 0.4 -- -- 98
2021-02-21 03:00:00 8 3 Sudeste 8 Sudeste 0 -- -- 99
2021-02-21 02:00:00 8.3 3 Este 12 Sudeste 0 -- -- 97
2021-02-21 01:00:00 8.5 4 Sudeste 10 Sudeste 1 -- -- 99
2021-02-21 00:00:00 8.7 0 Calma 6 Sudeste 1 -- -- 99
2021-02-20 23:00:00 9 0 Calma 21 Sudeste 1.4 -- -- 99
2021-02-20 22:00:00 9.5 10 Sudeste 21 Sudeste 1.8 -- -- 98
2021-02-20 21:00:00 10.1 6 Sudeste 17 Sur 0 -- -- 97
2021-02-20 20:00:00 10.4 9 Sudeste 18 Sur 0 -- -- 96
2021-02-20 19:00:00 10.8 7 Sur 19 Sudoeste 0.2 -- -- 95
2021-02-20 18:00:00 11.4 4 Sudoeste 25 Sudoeste 0.4 -- -- 89
2021-02-20 17:00:00 11.6 4 Sudoeste 22 Sudoeste 0 -- -- 88
2021-02-20 16:00:00 11.7 6 Sur 25 Sudeste 0.2 -- -- 90
2021-02-20 15:00:00 11.8 6 Sudoeste 28 Sur 0.2 -- -- 93
2021-02-20 14:00:00 11.7 6 Sudoeste 42 Sudoeste 2 -- -- 95
2021-02-20 13:00:00 13.1 10 Sudoeste 39 Sur 0.4 -- -- 95
2021-02-20 12:00:00 12.7 11 Sudoeste 60 Sudoeste 4.4 -- -- 98
2021-02-20 11:00:00 12.7 23 Sur 70 Sur 4 -- -- 97
2021-02-20 10:00:00 13.1 24 Sur 58 Sur 5.8 -- -- 96
2021-02-20 09:00:00 12.4 18 Sur 45 Sur 18.4 -- -- 99
2021-02-20 08:00:00 12.3 15 Sur 58 Sudeste 14.8 -- -- 98
2021-02-20 07:00:00 12.5 22 Sur 63 Sudeste 12 -- -- 95
2021-02-20 06:00:00 14.3 22 Sur 68 Sur 0.8 -- -- 80
2021-02-20 05:00:00 14 23 Sur 63 Sudeste 0.8 -- -- 83
2021-02-20 04:00:00 13.7 21 Sur 70 Sur 1.6 -- -- 84
2021-02-20 03:00:00 12.9 26 Sur 65 Sur 4.6 -- -- 92
2021-02-20 02:00:00 12.9 24 Sur 66 Sur 9.8 -- -- 93
2021-02-20 01:00:00 13.7 27 Sur 65 Sur 2.4 -- -- 86
2021-02-20 00:00:00 12.9 24 Sur 66 Sudoeste 6 -- -- 90
2021-02-19 23:00:00 12.8 20 Sur 59 Sur 6.2 -- -- 95
2021-02-19 22:00:00 13.2 19 Sur 71 Sur 1.2 -- -- 93
2021-02-19 21:00:00 13.7 22 Sur 63 Sur 0 -- -- 87
2021-02-19 20:00:00 13.9 28 Sur 67 Sur 0 -- -- 85
2021-02-19 19:00:00 13.6 20 Sur 67 Sur 0 -- -- 88
2021-02-19 18:00:00 13.6 17 Sur 64 Sudeste 0 -- -- 88
2021-02-19 17:00:00 13.2 26 Sur 65 Sur 0 -- -- 91
2021-02-19 16:00:00 12.8 15 Sur 55 Sur 0 -- -- 95
2021-02-19 15:00:00 12.6 15 Sur 55 Sur 0.6 -- -- 97
2021-02-19 14:00:00 12.7 15 Sudoeste 51 Sur 0.2 -- -- 97
2021-02-19 13:00:00 12.6 21 Sur 54 Sur 3 -- -- 97
2021-02-19 12:00:00 12.5 14 Sur 50 Sudoeste 3.2 -- -- 98
2021-02-19 11:00:00 12.7 22 Sur 53 Sur 2.2 -- -- 96
2021-02-19 10:00:00 12.6 6 Sudoeste 36 Sur 0 -- -- 91
2021-02-19 09:00:00 12.2 13 Sur 35 Sur 0.4 -- -- 94
2021-02-19 08:00:00 12.4 8 Sudoeste 36 Sur 0 -- -- 89
2021-02-19 07:00:00 12.1 11 Sur 30 Sudoeste 0 -- -- 89
2021-02-19 06:00:00 11.5 10 Sur 35 Sur 0 -- -- 88
2021-02-19 05:00:00 11.4 8 Sur 27 Sur 0 -- -- 90
2021-02-19 04:00:00 11.3 10 Sur 25 Sudoeste 0 -- -- 89
2021-02-19 03:00:00 10.8 9 Sur 27 Sur 0.2 -- -- 90
2021-02-19 02:00:00 10.8 6 Sudoeste 26 Sudoeste 0 -- -- 82
2021-02-19 01:00:00 10.1 4 Sudoeste 17 Sur 0 -- -- 81
2021-02-19 00:00:00 10.2 5 Sudoeste 22 Sudoeste 0 -- -- 80
2021-02-18 23:00:00 10.1 7 Sudoeste 23 Sudoeste 0 -- -- 79
2021-02-18 22:00:00 9.9 6 Sudoeste 19 Sur 0 -- -- 77
2021-02-18 21:00:00 10 5 Sur 23 Sur 0 -- -- 78
2021-02-18 20:00:00 10.2 5 Sudoeste 22 Sudoeste 0 -- -- 75
2021-02-18 19:00:00 11.1 4 Sudoeste 21 Sur 0 -- -- 79
2021-02-18 18:00:00 11.7 4 Sudoeste 19 Sudoeste 0 -- -- 74
2021-02-18 17:00:00 11.9 5 Sudoeste 20 Sur 0 -- -- 72
2021-02-18 16:00:00 12.7 4 Sudoeste 20 Sudoeste 0 -- -- 73
2021-02-18 15:00:00 13.5 3 Noroeste 18 Noroeste 0 -- -- 76
2021-02-18 14:00:00 13.2 4 Oeste 18 Oeste 0 -- -- 79
2021-02-18 13:00:00 13.2 4 Sudoeste 17 Sur 0 -- -- 82
2021-02-18 12:00:00 10.7 2 Sudoeste 13 Noroeste 0 -- -- 89
2021-02-18 11:00:00 11.7 3 Oeste 13 Noroeste 0 -- -- 92
2021-02-18 10:00:00 9.9 2 Sudoeste 9 Sur 0 -- -- 99
2021-02-18 09:00:00 9.2 0 Calma 11 Sur 0 -- -- 100
2021-02-18 08:00:00 8.9 2 Sur 13 Noroeste 1 -- -- 100
2021-02-18 07:00:00 9.5 4 Noroeste 21 Oeste 1.6 -- -- 100
2021-02-18 06:00:00 9.8 4 Noroeste 19 Oeste 2.6 -- -- 100
2021-02-18 05:00:00 10.1 4 Noroeste 18 Sudoeste 4.4 -- -- 99
2021-02-18 04:00:00 10.4 4 Oeste 57 Sudoeste 3.8 -- -- 93
2021-02-18 03:00:00 12.8 9 Sudoeste 42 Sudoeste 0 -- -- 83
2021-02-18 02:00:00 12.6 11 Sudoeste 40 Sudoeste 0 -- -- 84
2021-02-18 01:00:00 12.3 10 Sudoeste 39 Sudoeste 0 -- -- 86
2021-02-18 00:00:00 12.2 9 Sudoeste 30 Sudoeste 0 -- -- 85
2021-02-17 23:00:00 12.2 5 Sudoeste 26 Sudoeste 0 -- -- 84
2021-02-17 22:00:00 12.2 6 Sur 31 Sur 0 -- -- 84
2021-02-17 21:00:00 12.1 5 Sudoeste 29 Sudoeste 0 -- -- 93
2021-02-17 20:00:00 11.6 7 Sudoeste 33 Sur 0.6 -- -- 98
2021-02-17 19:00:00 12.4 12 Sur 43 Sudoeste 8.2 -- -- 97
2021-02-17 18:00:00 12.3 17 Sur 54 Sur 1.8 -- -- 99
2021-02-17 17:00:00 12 9 Sur 31 Sur 0.8 -- -- 96
2021-02-17 16:00:00 12.5 10 Sur 32 Sudeste 0.4 -- -- 92
2021-02-17 15:00:00 14.8 10 Sudoeste 37 Sur 0 -- -- 70
2021-02-17 14:00:00 14.6 8 Sudoeste 28 Oeste 0 -- -- 73
2021-02-17 13:00:00 12.9 7 Sudoeste 32 Sur 0 -- -- 82
2021-02-17 12:00:00 13.1 12 Sur 30 Sur 0 -- -- 80
2021-02-17 11:00:00 11.6 9 Sur 33 Sur 0 -- -- 85
2021-02-17 10:00:00 10.4 9 Sur 21 Sur 0 -- -- 94
2021-02-17 09:00:00 9 4 Sur 13 Sudeste 0 -- -- 96
2021-02-17 08:00:00 9 6 Sur 19 Sur 0 -- -- 95
2021-02-17 07:00:00 9.1 6 Sudeste 16 Sur 0 -- -- 95
2021-02-17 06:00:00 9.2 7 Sudeste 17 Sudoeste 0 -- -- 96
2021-02-17 05:00:00 9.2 5 Sudeste 11 Sudeste 0 -- -- 97
2021-02-17 04:00:00 9.6 4 Sur 11 Sudeste 0 -- -- 95
2021-02-17 03:00:00 10.1 4 Sur 15 Sudoeste 0 -- -- 91
2021-02-17 02:00:00 10.8 5 Sur 19 Sur 0 -- -- 83
2021-02-17 01:00:00 11 5 Sur 18 Sudoeste 0 -- -- 83
2021-02-17 00:00:00 11.1 5 Sudoeste 21 Sur 0 -- -- 83
2021-02-16 23:00:00 11 5 Sur 19 Sur 0 -- -- 85
2021-02-16 22:00:00 11.1 4 Sur 18 Oeste 0 -- -- 86
2021-02-16 21:00:00 11.2 4 Sur 17 Sudoeste 0 -- -- 85
2021-02-16 20:00:00 11.7 3 Sudoeste 18 Oeste 0 -- -- 83
2021-02-16 19:00:00 12.4 3 Sudoeste 16 Sudoeste 0 -- -- 80
2021-02-16 18:00:00 13.1 3 Sudoeste 14 Sudoeste 0 -- -- 79
2021-02-16 17:00:00 13.7 4 Oeste 17 Sudoeste 0 -- -- 74
2021-02-16 16:00:00 14.3 3 Oeste 21 Sudoeste 0 -- -- 80
2021-02-16 15:00:00 13.6 3 Oeste 18 Sur 0 -- -- 84
2021-02-16 14:00:00 13.4 4 Sudoeste 19 Sur 0 -- -- 79
2021-02-16 13:00:00 13.8 3 Oeste 21 Sur 0 -- -- 84
2021-02-16 12:00:00 12.7 4 Oeste 20 Sudoeste 0 -- -- 90
2021-02-16 11:00:00 11.9 5 Oeste 22 Noroeste 0 -- -- 94
2021-02-16 10:00:00 11.1 5 Sudoeste 22 Sudoeste 0.2 -- -- 97
2021-02-16 09:00:00 10.6 4 Sudoeste 24 Sudoeste 0.4 -- -- 100
2021-02-16 08:00:00 10.3 2 Noroeste 14 Oeste 3.4 -- -- 100
2021-02-16 07:00:00 10.3 4 Noroeste 31 Sudoeste 8.6 -- -- 98
2021-02-16 06:00:00 12.6 10 Sudoeste 61 Sudoeste 3.6 -- -- 96
2021-02-16 05:00:00 13.5 23 Sur 62 Sur 0 -- -- 89
2021-02-16 04:00:00 13.4 17 Sur 47 Sudoeste 0 -- -- 90
2021-02-16 03:00:00 13.5 10 Sudoeste 36 Sur 0 -- -- 88
2021-02-16 02:00:00 14 12 Sudoeste 44 Sudoeste 0 -- -- 85
2021-02-16 01:00:00 13.9 9 Sudoeste 27 Sur 0 -- -- 85
2021-02-16 00:00:00 13.6 7 Sur 24 Sudoeste 0 -- -- 87
2021-02-15 23:00:00 13.4 8 Sur 32 Sudoeste 0 -- -- 89
2021-02-15 22:00:00 13.6 5 Sur 35 Sur 0 -- -- 85
2021-02-15 21:00:00 13.6 8 Sudoeste 27 Sudoeste 0 -- -- 81
2021-02-15 20:00:00 13.7 4 Sudoeste 22 Noroeste 0 -- -- 78
2021-02-15 19:00:00 15.6 4 Noroeste 27 Sudoeste 0 -- -- 68
2021-02-15 18:00:00 17 7 Sudoeste 30 Sur 0 -- -- 52
2021-02-15 17:00:00 17.7 10 Sudoeste 42 Sur 0 -- -- 50
2021-02-15 16:00:00 18.3 17 Sur 51 Sur 0 -- -- 47
2021-02-15 15:00:00 19 13 Sudoeste 48 Sudoeste 0 -- -- 46
2021-02-15 14:00:00 19.2 9 Sudoeste 30 Sur 0 -- -- 52
2021-02-15 13:00:00 18.4 6 Sudoeste 36 Sur 0 -- -- 58
2021-02-15 12:00:00 17.5 11 Sur 31 Sur 0 -- -- 61
2021-02-15 11:00:00 15.1 4 Sudeste 15 Sur 0 -- -- 74
2021-02-15 10:00:00 13.6 7 Sur 19 Sudeste 0 -- -- 79
2021-02-15 09:00:00 13.5 10 Sur 28 Sur 0 -- -- 76
2021-02-15 08:00:00 13.7 8 Sur 28 Sur 0 -- -- 68
2021-02-15 07:00:00 14 8 Sudoeste 35 Sur 0 -- -- 67
2021-02-15 06:00:00 13.7 13 Sur 48 Sur 0 -- -- 75
2021-02-15 05:00:00 13.3 13 Sur 33 Sur 0 -- -- 71
2021-02-15 04:00:00 13.5 10 Sur 31 Sur 0 -- -- 68
2021-02-15 03:00:00 13.5 7 Sur 35 Sur 0 -- -- 65
2021-02-15 02:00:00 13.5 10 Sur 32 Sur 0 -- -- 66
2021-02-15 01:00:00 13.1 8 Sur 40 Sur 0 -- -- 72
2021-02-15 00:00:00 13.1 10 Sur 44 Sudeste 0 -- -- 72
2021-02-14 23:00:00 12.8 9 Sur 20 Sur 0 -- -- 82
2021-02-14 22:00:00 12.7 4 Sudoeste 19 Sur 0 -- -- 86
2021-02-14 21:00:00 12.8 8 Sur 29 Sur 0 -- -- 84
2021-02-14 20:00:00 13.1 9 Sur 24 Sur 0 -- -- 80
2021-02-14 19:00:00 13.5 6 Sudoeste 29 Sur 0 -- -- 78
2021-02-14 18:00:00 14.1 9 Sur 32 Sur 0 -- -- 80
2021-02-14 17:00:00 14.5 8 Sudoeste 45 Sur 0 -- -- 76
2021-02-14 16:00:00 15.3 12 Sudoeste 38 Sur 0 -- -- 72
2021-02-14 15:00:00 15.7 12 Sur 38 Sudoeste 0 -- -- 68
2021-02-14 14:00:00 16.1 9 Sudoeste 36 Sur 0 -- -- 60
2021-02-14 13:00:00 14.9 10 Sudoeste 38 Sur 0 -- -- 68
2021-02-14 12:00:00 16.3 8 Sur 32 Sudoeste 0 -- -- 65
2021-02-14 11:00:00 14.6 8 Sudoeste 25 Sudeste 0 -- -- 71
2021-02-14 10:00:00 12.6 6 Sur 22 Sur 0 -- -- 85
2021-02-14 09:00:00 11.9 10 Sudeste 21 Sudeste 0 -- -- 94
2021-02-14 08:00:00 11.6 4 Este 12 Sudoeste 0 -- -- 94
2021-02-14 07:00:00 11.9 6 Sudeste 16 Este 0 -- -- 91
2021-02-14 06:00:00 11.7 2 Nordeste 14 Sur 0 -- -- 92
2021-02-14 05:00:00 11.9 0 Calma 16 Sudoeste 0 -- -- 93
2021-02-14 04:00:00 12.2 5 Sudoeste 27 Sur 0 -- -- 93
2021-02-14 03:00:00 12.4 8 Sur 22 Sudeste 0 -- -- 94
2021-02-14 02:00:00 12.7 3 Sudoeste 14 Sur 0 -- -- 91
2021-02-14 01:00:00 12.5 0 Calma 11 Oeste 0 -- -- 91
2021-02-14 00:00:00 12.6 3 Sudeste 13 Sur 0 -- -- 88
2021-02-13 23:00:00 12 3 Oeste 16 Sudoeste 0 -- -- 92
2021-02-13 22:00:00 12.1 8 Sur 36 Sudeste 0 -- -- 97
2021-02-13 21:00:00 12.3 12 Sur 37 Sur 0 -- -- 100
2021-02-13 20:00:00 12.4 13 Sur 35 Sur 0 -- -- 100
2021-02-13 19:00:00 12.4 8 Sur 24 Sur 0 -- -- 100
2021-02-13 18:00:00 12.7 10 Sur 27 Sur 0 -- -- 99
2021-02-13 17:00:00 12.7 5 Sur 24 Sur 0 -- -- 99
2021-02-13 16:00:00 13.5 10 Sur 33 Sur 0 -- -- 96
2021-02-13 15:00:00 14 13 Sur 33 Sur 0 -- -- 93
2021-02-13 14:00:00 13.5 12 Sur 30 Sur 0 -- -- 95
2021-02-13 13:00:00 13.3 13 Sur 35 Sur 0 -- -- 96
2021-02-13 08:00:00 -- -- -- -- -- -- -- -- --
2021-02-13 07:00:00 -- -- -- -- -- -- -- -- --
2021-02-13 06:00:00 -- -- -- -- -- -- -- -- --
2021-02-13 05:00:00 11.9 6 Sudoeste 30 Sur 0 -- -- 94
2021-02-13 04:00:00 11.9 8 Sudoeste 28 Sur 0 -- -- 93
2021-02-13 03:00:00 11.7 6 Sur 20 Sur 0 -- -- 92
2021-02-13 02:00:00 11.7 5 Sur 14 Sudoeste 0 -- -- 89
2021-02-13 01:00:00 11.7 4 Sur 19 Sur 0 -- -- 94
2021-02-13 00:00:00 11.9 6 Sur 27 Sur 0 -- -- 93
2021-02-12 23:00:00 11.8 7 Sur 15 Sudoeste 0 -- -- 93
2021-02-12 22:00:00 11.6 3 Sur 11 Sur 0 -- -- 93
2021-02-12 21:00:00 11.5 4 Sudoeste 11 Sur 0 -- -- 88
2021-02-12 20:00:00 11.6 4 Sur 10 Sur 0 -- -- 90
2021-02-12 19:00:00 12.2 4 Sur 12 Sur 0 -- -- 92
2021-02-12 18:00:00 13 4 Sudoeste 16 Sur 0 -- -- 92
2021-02-12 17:00:00 13.2 4 Sudoeste 18 Oeste 0 -- -- 89
2021-02-12 16:00:00 13.3 3 Sudoeste 19 Oeste 0 -- -- 92
2021-02-12 15:00:00 13.3 3 Noroeste 14 Sudoeste 0 -- -- 92
2021-02-12 14:00:00 13.7 3 Noroeste 14 Oeste 0 -- -- 90
2021-02-12 13:00:00 13.7 3 Noroeste 13 Oeste 0 -- -- 95
2021-02-12 12:00:00 12.6 3 Oeste 10 Oeste 0 -- -- 100
2021-02-12 11:00:00 11.6 2 Noroeste 13 Noroeste 0 -- -- 100
2021-02-12 10:00:00 11.2 3 Noroeste 23 Noroeste 0.4 -- -- 100
2021-02-12 09:00:00 10.8 2 Oeste 10 Sudoeste 0.2 -- -- 100
2021-02-12 08:00:00 10.5 0 Calma 6 Oeste 0 -- -- 100
2021-02-12 07:00:00 10.9 0 Calma 14 Oeste 0.4 -- -- 100
2021-02-12 06:00:00 10.8 2 Noroeste 15 Noroeste 0.4 -- -- 100
2021-02-12 05:00:00 10.8 3 Noroeste 18 Oeste 0 -- -- 100
2021-02-12 04:00:00 11 3 Noroeste 18 Norte 1 -- -- 100
2021-02-12 03:00:00 11 4 Noroeste 21 Noroeste 0 -- -- 100
2021-02-12 02:00:00 11.7 5 Noroeste 27 Noroeste 2.4 -- -- 100
2021-02-12 01:00:00 12.1 4 Noroeste 18 Norte 1.6 -- -- 100
2021-02-12 00:00:00 12.1 4 Noroeste 19 Oeste 2.8 -- -- 100
2021-02-11 23:00:00 12.3 4 Sur 11 Sur 2.2 -- -- 100
2021-02-11 22:00:00 12.4 4 Sur 17 Sur 1.2 -- -- 100
2021-02-11 21:00:00 12.4 9 Sur 22 Sur 3 -- -- 100
2021-02-11 20:00:00 12.7 9 Sur 19 Sur 2.2 -- -- 100
2021-02-11 19:00:00 12.6 5 Sur 12 Sur 1 -- -- 100
2021-02-11 18:00:00 12.6 4 Sur 16 Oeste 0.8 -- -- 99
2021-02-11 17:00:00 12.8 3 Oeste 22 Sudoeste 2.6 -- -- 99
2021-02-11 16:00:00 13 4 Sudoeste 29 Sur 6 -- -- 100
2021-02-11 15:00:00 13.7 10 Sur 26 Sur 1.6 -- -- 100
2021-02-11 14:00:00 13.6 11 Sur 24 Sur 3.6 -- -- 100
2021-02-11 13:00:00 13.5 9 Sudeste 17 Sur 1.8 -- -- 100
2021-02-11 12:00:00 13.3 7 Sur 17 Sudeste 4.4 -- -- 100
2021-02-11 11:00:00 13.2 8 Sur 28 Sur 5.2 -- -- 100
2021-02-11 10:00:00 13.2 10 Sur 27 Sur 0.4 -- -- 100
2021-02-11 09:00:00 12.9 11 Sur 23 Sur 2.8 -- -- 100
2021-02-11 08:00:00 12.9 6 Sur 25 Sur 5 -- -- 100
2021-02-11 07:00:00 12.9 6 Sur 21 Sudoeste 0 -- -- 100
2021-02-11 06:00:00 13 5 Sur 18 Sur 0 -- -- 100
2021-02-11 05:00:00 13.5 7 Sudoeste 33 Sudoeste 0.2 -- -- 100
2021-02-11 04:00:00 13.5 8 Sudoeste 30 Oeste 0.2 -- -- 100
2021-02-11 03:00:00 13.3 5 Sudoeste 37 Oeste 0.6 -- -- 100
2021-02-11 02:00:00 12.4 8 Sur 27 Sur 0.8 -- -- 100
2021-02-11 01:00:00 10.6 9 Sudeste 24 Sur 1 -- -- 100
2021-02-11 00:00:00 9.9 12 Sudeste 26 Sur 1.2 -- -- 100
2021-02-10 23:00:00 9.2 8 Sudeste 17 Sudeste 0.2 -- -- 100
2021-02-10 22:00:00 9.3 8 Sudeste 21 Sudeste 0.6 -- -- 98
2021-02-10 21:00:00 9.7 5 Sur 19 Sudeste 0.6 -- -- 96
2021-02-10 20:00:00 10.1 5 Sur 17 Sudeste 0 -- -- 94
2021-02-10 19:00:00 10.4 7 Sur 19 Sudeste 0 -- -- 90
2021-02-10 18:00:00 11 4 Sur 13 Sur 0 -- -- 82
2021-02-10 17:00:00 11.4 5 Sudoeste 16 Sur 0 -- -- 75
2021-02-10 16:00:00 11.3 5 Sudoeste 25 Sur 0 -- -- 81
2021-02-10 15:00:00 12 7 Sur 19 Sur 0 -- -- 75
2021-02-10 14:00:00 11.8 2 Noroeste 10 Norte 0 -- -- 82
2021-02-10 13:00:00 13 2 Sudoeste 12 Sudoeste 0 -- -- 83
2021-02-10 12:00:00 11.3 4 Sudeste 9 Sudeste 0 -- -- 95
2021-02-10 11:00:00 7.7 3 Sur 6 Sudeste 0 -- -- 100
2021-02-10 10:00:00 6.8 3 Sudeste 6 Sudeste 0 -- -- 100
2021-02-10 09:00:00 5.5 0 Calma 6 Sudeste 0 -- -- 100
2021-02-10 08:00:00 5.2 0 Calma 4 Sudeste 0 -- -- 100
2021-02-10 07:00:00 5.3 2 Sudeste 4 Sudeste 0 -- -- 100
2021-02-10 06:00:00 5.6 2 Sudeste 5 Sudeste 0 -- -- 100
2021-02-10 05:00:00 5.9 2 Este 4 Sudeste 0 -- -- 100
2021-02-10 04:00:00 6 0 Calma 3 Nordeste 0 -- -- 100
2021-02-10 03:00:00 6.5 0 Calma 6 Nordeste 0 -- -- 99
2021-02-10 02:00:00 7.3 3 Norte 11 Norte 0 -- -- 99
2021-02-10 01:00:00 7.9 3 Noroeste 26 Noroeste 1.2 -- -- 98
2021-02-10 00:00:00 8.6 4 Oeste 21 Sur 0 -- -- 99
2021-02-09 23:00:00 8.5 3 Noroeste 30 Noroeste 1.6 -- -- 98
2021-02-09 22:00:00 8.6 5 Noroeste 22 Sudoeste 1.4 -- -- 96
2021-02-09 21:00:00 9 4 Sudoeste 19 Sudoeste 0.2 -- -- 95
2021-02-09 20:00:00 8.3 5 Sudoeste 26 Oeste 0.2 -- -- 95
2021-02-09 19:00:00 7.8 4 Noroeste 24 Noroeste 0.2 -- -- 99
2021-02-09 18:00:00 7.7 4 Sudoeste 15 Sur 1.8 -- -- 98
2021-02-09 17:00:00 7.4 2 Este 12 Sudoeste 4.2 -- -- 96
2021-02-09 16:00:00 9.1 6 Sudoeste 34 Noroeste 0.4 -- -- 85
2021-02-09 15:00:00 10.1 5 Oeste 24 Oeste 2.6 -- -- 91
2021-02-09 14:00:00 10.1 5 Oeste 26 Oeste 1.2 -- -- 91
2021-02-09 13:00:00 11.2 5 Noroeste 37 Noroeste 0 -- -- 78
2021-02-09 12:00:00 10.2 6 Noroeste 37 Noroeste 0 -- -- 81
2021-02-09 11:00:00 9.4 7 Noroeste 35 Noroeste 0 -- -- 84
2021-02-09 10:00:00 9.1 6 Noroeste 41 Noroeste 0 -- -- 87
2021-02-09 09:00:00 9.4 6 Noroeste 41 Oeste 0 -- -- 92
2021-02-09 08:00:00 9.5 7 Sudoeste 30 Sudeste 0.2 -- -- 91
2021-02-09 07:00:00 9.1 9 Noroeste 50 Sudoeste 4 -- -- 92
2021-02-09 06:00:00 11.5 12 Sudoeste 52 Sur 0.4 -- -- 91
2021-02-09 05:00:00 11.1 9 Sudoeste 53 Sudoeste 1.4 -- -- 95
2021-02-09 04:00:00 11.2 14 Sudoeste 39 Sur 1.2 -- -- 96
2021-02-09 03:00:00 10.8 8 Sudoeste 43 Sudoeste 1.6 -- -- 97
2021-02-09 02:00:00 10.3 8 Sudoeste 32 Sur 1 -- -- 98
2021-02-09 01:00:00 9.2 6 Sudoeste 26 Sudoeste 1.8 -- -- 100
2021-02-09 00:00:00 8.5 11 Sur 33 Este 1.6 -- -- 98
2021-02-08 23:00:00 9 13 Sur 35 Sur 1.2 -- -- 95
2021-02-08 22:00:00 9.7 5 Sudoeste 29 Sudoeste 1 -- -- 95
2021-02-08 21:00:00 10.5 6 Sudoeste 32 Sudoeste 0 -- -- 90
2021-02-08 20:00:00 10.2 5 Sudoeste 23 Oeste 0 -- -- 96
2021-02-08 19:00:00 10 5 Oeste 19 Oeste 0 -- -- 100
2021-02-08 18:00:00 10 2 Noroeste 16 Oeste 0.2 -- -- 100
2021-02-08 17:00:00 10.2 3 Noroeste 18 Oeste 1.2 -- -- 100
2021-02-08 16:00:00 10 5 Noroeste 25 Noroeste 4.2 -- -- 100
2021-02-08 15:00:00 10.6 3 Noroeste 14 Oeste 0.4 -- -- 100
2021-02-08 14:00:00 10.9 2 Noroeste 18 Noroeste 0 -- -- 100
2021-02-08 13:00:00 10.5 3 Norte 14 Norte 0.2 -- -- 100
2021-02-08 12:00:00 9.6 3 Noroeste 16 Noroeste 0.8 -- -- 100
2021-02-08 11:00:00 8.9 0 Calma 14 Noroeste 1 -- -- 100
2021-02-08 10:00:00 7.7 2 Noroeste 21 Noroeste 10 -- -- 100
2021-02-08 09:00:00 9.3 5 Oeste 26 Sudoeste 0.6 -- -- 99
2021-02-08 08:00:00 8.2 2 Sur 12 Noroeste 2.6 -- -- 100
2021-02-08 07:00:00 8.6 0 Calma 12 Sur 1.8 -- -- 99
2021-02-08 06:00:00 8.6 0 Calma 25 Sur 1.2 -- -- 97
2021-02-08 05:00:00 9 3 Sur 15 Oeste 0 -- -- 96
2021-02-08 04:00:00 9.6 0 Calma 15 Oeste 0.2 -- -- 99
2021-02-08 03:00:00 8.7 0 Calma 21 Noroeste 1.4 -- -- 99
2021-02-08 02:00:00 9.9 4 Noroeste 21 Oeste 0 -- -- 100
2021-02-08 01:00:00 10 3 Noroeste 20 Noroeste 0 -- -- 100
2021-02-08 00:00:00 10.3 6 Oeste 31 Sudoeste 0.2 -- -- 100
2021-02-07 23:00:00 9.9 0 Calma 18 Oeste 0.6 -- -- 100
2021-02-07 22:00:00 11.4 5 Noroeste 30 Noroeste 3.2 -- -- 100
2021-02-07 21:00:00 12 4 Sudoeste 44 Sudoeste 2 -- -- 100
2021-02-07 20:00:00 11.9 8 Sudoeste 38 Sur 0.8 -- -- 100
2021-02-07 19:00:00 10.9 13 Sudoeste 44 Sur 5.4 -- -- 100
2021-02-07 18:00:00 9.2 13 Sur 36 Sudeste 2.6 -- -- 100
2021-02-07 17:00:00 9.1 16 Sur 40 Sur 0.2 -- -- 100
2021-02-07 16:00:00 9.1 14 Sur 39 Sur 0.4 -- -- 100
2021-02-07 15:00:00 8.4 3 Sur 26 Sur 0.4 -- -- 100
2021-02-07 14:00:00 7.6 6 Sur 25 Sudeste 0.6 -- -- 100
2021-02-07 13:00:00 6.5 7 Sudeste 18 Sur 0.2 -- -- 100
2021-02-07 12:00:00 6 9 Sur 24 Sur 0 -- -- 98
2021-02-07 11:00:00 5.8 8 Sudeste 22 Sur 0 -- -- 97
2021-02-07 10:00:00 5 6 Sudeste 16 Sudeste 0.2 -- -- 97
2021-02-07 09:00:00 4.8 5 Sudeste 11 Sudeste 0.2 -- -- 97
2021-02-07 08:00:00 4.7 6 Sudeste 12 Sur 0 -- -- 97
2021-02-07 07:00:00 4.2 4 Sudeste 8 Sudeste 0.2 -- -- 99
2021-02-07 06:00:00 3.3 0 Calma 3 Sudeste 0 -- -- 100
2021-02-07 05:00:00 3.1 3 Sudeste 8 Este 0 -- -- 100
2021-02-07 04:00:00 2.7 2 Sudeste 6 Sudeste 0 -- -- 99
2021-02-07 03:00:00 3 0 Calma 3 Este 0 -- -- 98
2021-02-07 02:00:00 3.3 2 Sudeste 3 Sudeste 0 -- -- 97
2021-02-07 01:00:00 3.8 0 Calma 3 Este 0 -- -- 97
2021-02-07 00:00:00 4 0 Calma 2 Nordeste 0 -- -- 96
2021-02-06 23:00:00 4.6 0 Calma 2 Sudeste 0 -- -- 94
2021-02-06 22:00:00 5.2 0 Calma 3 Nordeste 0 -- -- 92
2021-02-06 21:00:00 5.8 2 Nordeste 18 Noroeste 0 -- -- 89
2021-02-06 20:00:00 6.7 0 Calma 7 Norte 0 -- -- 85
2021-02-06 19:00:00 8 2 Noroeste 12 Oeste 0 -- -- 82
2021-02-06 18:00:00 9.1 4 Norte 20 Nordeste 0 -- -- 68
2021-02-06 17:00:00 9.8 6 Noroeste 23 Norte 0 -- -- 72
2021-02-06 16:00:00 10.3 5 Nordeste 29 Nordeste 0 -- -- 65
2021-02-06 15:00:00 10.3 10 Nordeste 31 Nordeste 0 -- -- 66
2021-02-06 14:00:00 11.1 8 Norte 24 Norte 0 -- -- 67
2021-02-06 13:00:00 10.4 6 Norte 35 Norte 0 -- -- 75
2021-02-06 12:00:00 10.4 6 Norte 26 Nordeste 0 -- -- 77
2021-02-06 11:00:00 8.8 5 Norte 22 Norte 0 -- -- 84
2021-02-06 10:00:00 8.3 7 Norte 26 Nordeste 0 -- -- 85
2021-02-06 09:00:00 7.8 4 Noroeste 22 Norte 0 -- -- 86
2021-02-06 08:00:00 8.2 4 Noroeste 25 Norte 0 -- -- 90
2021-02-06 07:00:00 8.6 4 Noroeste 26 Nordeste 0 -- -- 86
2021-02-06 06:00:00 8.6 3 Noroeste 24 Nordeste 0 -- -- 85
2021-02-06 05:00:00 8.7 5 Noroeste 23 Nordeste 0 -- -- 83
2021-02-06 04:00:00 8.6 5 Norte 35 Nordeste 0 -- -- 86
2021-02-06 03:00:00 8.7 4 Norte 23 Nordeste 0 -- -- 86
2021-02-06 02:00:00 8.7 5 Norte 23 Nordeste 0 -- -- 86
2021-02-06 01:00:00 8.9 8 Nordeste 23 Norte 0 -- -- 88
2021-02-06 00:00:00 9.3 2 Noroeste 20 Norte 0 -- -- 89
2021-02-05 23:00:00 9.5 4 Noroeste 30 Nordeste 0 -- -- 87
2021-02-05 22:00:00 9.7 5 Nordeste 24 Norte 0 -- -- 85
2021-02-05 21:00:00 9.9 5 Norte 25 Nordeste 0 -- -- 83
2021-02-05 20:00:00 9.8 4 Norte 23 Nordeste 0 -- -- 84
2021-02-05 19:00:00 10.1 3 Noroeste 28 Nordeste 0 -- -- 84
2021-02-05 18:00:00 10.6 5 Noroeste 29 Nordeste 0 -- -- 84
2021-02-05 17:00:00 11.1 8 Nordeste 26 Este 0 -- -- 83
2021-02-05 16:00:00 11.1 5 Norte 25 Nordeste 0 -- -- 87
2021-02-05 15:00:00 12.6 7 Nordeste 28 Nordeste 0 -- -- 79
2021-02-05 14:00:00 12.4 5 Norte 26 Norte 0 -- -- 77
2021-02-05 13:00:00 12.3 6 Nordeste 21 Nordeste 0 -- -- 78
2021-02-05 12:00:00 11.7 3 Nordeste 14 Nordeste 0 -- -- 89
2021-02-05 11:00:00 8.7 3 Noroeste 12 Nordeste 0 -- -- 100
2021-02-05 10:00:00 7.6 2 Este 6 Este 0 -- -- 100
2021-02-05 09:00:00 6.7 3 Este 11 Nordeste 0 -- -- 100
2021-02-05 08:00:00 6.3 2 Nordeste 8 Nordeste 0 -- -- 100
2021-02-05 07:00:00 6.6 2 Nordeste 8 Norte 0 -- -- 100
2021-02-05 06:00:00 6.8 3 Norte 7 Nordeste 0 -- -- 100
2021-02-05 05:00:00 7.2 3 Nordeste 8 Nordeste 0 -- -- 100
2021-02-05 04:00:00 7.4 3 Norte 9 Nordeste 0 -- -- 100
2021-02-05 03:00:00 7.6 0 Calma 4 Nordeste 0 -- -- 100
2021-02-05 02:00:00 7.8 0 Calma 6 Nordeste 0 -- -- 100
2021-02-05 01:00:00 8.3 0 Calma 5 Este 0.2 -- -- 99
2021-02-05 00:00:00 8.9 0 Calma 5 Nordeste 0.6 -- -- 99
2021-02-04 23:00:00 9 0 Calma 4 Norte 0.4 -- -- 99
2021-02-04 22:00:00 9.2 0 Calma 7 Norte 1.2 -- -- 97
2021-02-04 21:00:00 9.6 0 Calma 8 Nordeste 0 -- -- 96
2021-02-04 20:00:00 10.2 0 Calma 5 Norte 0 -- -- 94
2021-02-04 19:00:00 10.8 0 Calma 7 Noroeste 0.2 -- -- 91
2021-02-04 18:00:00 11.5 2 Noroeste 15 Norte 0 -- -- 88
2021-02-04 17:00:00 12 2 Oeste 13 Sur 0.2 -- -- 87
2021-02-04 16:00:00 13.3 5 Sur 14 Sur 0 -- -- 74
2021-02-04 15:00:00 14.4 5 Sur 22 Sudeste 0 -- -- 66
2021-02-04 14:00:00 14.6 7 Sudeste 14 Sudeste 0 -- -- 69
2021-02-04 13:00:00 12.9 6 Sur 18 Sur 0 -- -- 78
2021-02-04 12:00:00 12.7 4 Sur 11 Sudeste 0 -- -- 84
2021-02-04 11:00:00 10.2 5 Sudeste 12 Sudeste 0 -- -- 96
2021-02-04 10:00:00 9 3 Sudeste 11 Sudeste 0 -- -- 100
2021-02-04 09:00:00 8.6 4 Sudeste 8 Sudeste 0 -- -- 99
2021-02-04 08:00:00 8.6 5 Sur 10 Sur 0 -- -- 97
2021-02-04 07:00:00 8.5 4 Sudeste 10 Sudeste 0 -- -- 97
2021-02-04 06:00:00 8.6 6 Sudeste 11 Sur 0 -- -- 96
2021-02-04 05:00:00 9 5 Sudeste 14 Sur 0 -- -- 92
2021-02-04 04:00:00 9.9 4 Sur 21 Sur 0 -- -- 92
2021-02-04 03:00:00 10.1 4 Sudoeste 18 Oeste 0.4 -- -- 93
2021-02-04 02:00:00 10.5 5 Sur 22 Sur 1 -- -- 91
2021-02-04 01:00:00 10 5 Sur 31 Oeste 0 -- -- 94
2021-02-04 00:00:00 10.5 8 Sudoeste 36 Sur 1.8 -- -- 89
2021-02-03 23:00:00 11.9 6 Sur 36 Sudoeste 0 -- -- 80
2021-02-03 22:00:00 11.8 7 Sudoeste 32 Sudoeste 0 -- -- 82
2021-02-03 21:00:00 11.6 6 Sudoeste 26 Sur 0 -- -- 83
2021-02-03 20:00:00 11.1 7 Sur 30 Sur 0 -- -- 90
2021-02-03 19:00:00 11.4 10 Sur 27 Sur 0 -- -- 85
2021-02-03 18:00:00 12 9 Sur 33 Sur 0 -- -- 86
2021-02-03 17:00:00 12.8 9 Sudoeste 30 Sur 0 -- -- 83
2021-02-03 16:00:00 13.1 10 Sur 30 Sur 0 -- -- 86
2021-02-03 15:00:00 13.2 5 Sudoeste 18 Sudoeste 0 -- -- 81
2021-02-03 14:00:00 11.6 4 Sudoeste 19 Sudoeste 0.6 -- -- 85
2021-02-03 13:00:00 13.7 6 Sudoeste 24 Sur 0 -- -- 77
2021-02-03 12:00:00 12.2 5 Sur 27 Sur 0 -- -- 83
2021-02-03 11:00:00 11.9 7 Sudoeste 29 Sudoeste 0 -- -- 82
2021-02-03 10:00:00 11.8 8 Sudoeste 30 Sudoeste 0 -- -- 85
2021-02-03 09:00:00 11.7 6 Sudoeste 35 Sudoeste 0 -- -- 87
2021-02-03 08:00:00 12.2 12 Sudoeste 40 Sudoeste 0 -- -- 84
2021-02-03 07:00:00 11.7 9 Sudoeste 38 Sudoeste 0 -- -- 88
2021-02-03 06:00:00 11.4 9 Sudoeste 32 Sudoeste 0 -- -- 88
2021-02-03 05:00:00 10.7 5 Sudoeste 42 Oeste 0.6 -- -- 93
2021-02-03 04:00:00 11.6 9 Sudoeste 42 Sudoeste 0.6 -- -- 87
2021-02-03 03:00:00 12.3 10 Sudoeste 39 Sur 0.2 -- -- 88
2021-02-03 02:00:00 12.3 9 Sudoeste 40 Sudoeste 0 -- -- 92
2021-02-03 01:00:00 12.3 7 Oeste 47 Sur 1 -- -- 97
2021-02-03 00:00:00 13.3 7 Oeste 47 Sudoeste 0 -- -- 92
2021-02-02 23:00:00 13.4 13 Sudoeste 48 Sudoeste 0 -- -- 91
2021-02-02 22:00:00 13.2 13 Sudoeste 39 Sudoeste 0 -- -- 87
2021-02-02 21:00:00 12.9 9 Sudoeste 33 Sur 0.2 -- -- 95
2021-02-02 20:00:00 13.1 10 Sudoeste 24 Sur 2.2 -- -- 100
2021-02-02 19:00:00 12.9 9 Sur 29 Sur 3.4 -- -- 100
2021-02-02 18:00:00 13 11 Sur 36 Sur 2.2 -- -- 100
2021-02-02 17:00:00 13.1 12 Sudoeste 45 Sudoeste 2 -- -- 100
2021-02-02 16:00:00 13 17 Sur 49 Sur 4.6 -- -- 100
2021-02-02 15:00:00 13.1 9 Sudoeste 35 Sudeste 4 -- -- 100
2021-02-02 14:00:00 13.5 10 Sur 36 Sur 1.2 -- -- 100
2021-02-02 13:00:00 13.5 8 Sudoeste 28 Sudoeste 1.4 -- -- 100
2021-02-02 12:00:00 13.3 8 Sudoeste 28 Sur 2 -- -- 100
2021-02-02 11:00:00 13.2 8 Sudoeste 35 Sur 3 -- -- 100
2021-02-02 10:00:00 13.1 9 Sudoeste 30 Sur 4 -- -- 100
2021-02-02 09:00:00 13 11 Sur 26 Sur 0.8 -- -- 100
2021-02-02 08:00:00 13 9 Sudoeste 32 Oeste 3 -- -- 100
2021-02-02 07:00:00 13.1 6 Sudoeste 37 Sudoeste 4.2 -- -- 99
2021-02-02 06:00:00 13.5 5 Sudoeste 28 Sur 0 -- -- 96
2021-02-02 05:00:00 13.6 11 Sudoeste 39 Sur 0 -- -- 95
2021-02-02 04:00:00 13.6 8 Sudoeste 40 Sudoeste 0 -- -- 94
2021-02-02 03:00:00 13.7 9 Sudoeste 39 Sur 0 -- -- 92
2021-02-02 02:00:00 13.7 10 Sudoeste 35 Sur 0 -- -- 91
2021-02-02 01:00:00 13.4 7 Sur 25 Sudoeste 0 -- -- 91
2021-02-02 00:00:00 13.5 7 Sudoeste 31 Sudoeste 0 -- -- 89
2021-02-01 23:00:00 13.7 12 Sudoeste 34 Sudoeste 0 -- -- 90
2021-02-01 22:00:00 13.7 10 Sudoeste 35 Sur 0 -- -- 89
2021-02-01 21:00:00 13.7 8 Sudoeste 35 Sudoeste 0 -- -- 88
2021-02-01 20:00:00 13.6 9 Sudoeste 25 Sur 0 -- -- 99
2021-02-01 19:00:00 13.4 5 Oeste 27 Sudoeste 0.2 -- -- 100
2021-02-01 18:00:00 12.7 10 Sur 26 Sur 0.6 -- -- 100
2021-02-01 17:00:00 12.6 6 Sur 23 Sur 1.4 -- -- 100
2021-02-01 16:00:00 12.3 6 Sur 18 Sudeste 1.4 -- -- 100
2021-02-01 15:00:00 12.3 9 Sur 27 Sur 1.6 -- -- 98
2021-02-01 14:00:00 13.3 3 Sudoeste 25 Sur 0 -- -- 93
2021-02-01 13:00:00 13 5 Sudoeste 26 Sur 0 -- -- 97
2021-02-01 12:00:00 12.7 5 Oeste 24 Noroeste 0.2 -- -- 99
2021-02-01 11:00:00 12.5 6 Oeste 24 Sudoeste 0 -- -- 100
2021-02-01 10:00:00 12.4 6 Oeste 27 Oeste 0 -- -- 100
2021-02-01 09:00:00 12.4 4 Noroeste 21 Noroeste 0 -- -- 100
2021-02-01 08:00:00 12.3 5 Noroeste 19 Oeste 0.6 -- -- 100
2021-02-01 07:00:00 12.4 4 Noroeste 31 Sudoeste 0.6 -- -- 99
2021-02-01 06:00:00 12.6 4 Noroeste 26 Oeste 0 -- -- 96
2021-02-01 05:00:00 12.7 5 Oeste 26 Sudoeste 0 -- -- 95
2021-02-01 04:00:00 12.8 6 Sudoeste 27 Sur 0 -- -- 95
2021-02-01 03:00:00 12.8 5 Sudoeste 29 Oeste 0 -- -- 96
2021-02-01 02:00:00 12.9 5 Sudoeste 25 Sudoeste 0 -- -- 95
2021-02-01 01:00:00 12.8 5 Oeste 33 Sudoeste 0 -- -- 96
2021-02-01 00:00:00 12.6 5 Noroeste 28 Sudoeste 0 -- -- 98